This demonstration page uses our WeatherBlox Daily Observations layout. Learn more.

Left ArrowRight Arrow

Hourly Observations for November 19, 2020

Temp ( °F °C ) Dew Point ( °F °C ) Humidity (%) Winds ( mph kmh ) Pressure ( in mb ) Visibility ( mi km ) Precip ( " mm )
12:56 am 00:56 Clear 51 10.6 38 3.3 61 61 SSW 9 15 29.73 1007 10 16 0.00 0.00
1:56 am 01:56 Clear 48 8.9 37 2.8 66 66 WSW 5 7 29.73 1007 10 16 0.00 0.00
2:56 am 02:56 Clear 46 7.8 37 2.8 71 71 SW 7 11 29.75 1007 10 16 0.00 0.00
3:56 am 03:56 Clear 46 7.8 36 2.2 68 68 SW 5 7 29.76 1008 10 16 0.00 0.00
4:56 am 04:56 Clear 42 5.6 34 1.1 73 73 Calm 29.79 1009 10 16 0.00 0.00
5:56 am 05:56 Clear 44 6.7 36 2.2 73 73 WSW 7 11 29.81 1010 10 16 0.00 0.00
6:56 am 06:56 Clear 38 3.3 33 0.6 83 83 WNW 5 7 29.83 1010 10 16 0.00 0.00
7:56 am 07:56 Sunny 42 5.6 33 0.6 71 71 W 7 11 29.84 1010 10 16 0.00 0.00
8:56 am 08:56 Sunny 50 10 35 1.7 57 57 WNW 9 15 29.85 1011 10 16 0.00 0.00
9:56 am 09:56 Sunny 60 15.6 36 2.2 41 41 WNW 10 17 29.86 1011 10 16 0.00 0.00
10:56 am 10:56 Sunny 65 18.3 36 2.2 34 34 NW 10 17 29.87 1011 10 16 0.00 0.00
11:56 am 11:56 Sunny 70 21.1 35 1.7 28 28 N 13 20 29.86 1011 10 16 0.00 0.00
12:56 pm 12:56 Sunny 73 22.8 33 0.6 23 23 NNW 12 19 29.85 1011 10 16 0.00 0.00
1:56 pm 13:56 Sunny 73 22.8 32 0 22 22 NW 10 17 29.86 1011 10 16 0.00 0.00
2:56 pm 14:56 Sunny 74 23.3 30 -1.1 20 20 NNW 7 11 29.88 1012 10 16 0.00 0.00
3:56 pm 15:56 Sunny 73 22.8 29 -1.7 19 19 NW 9 15 29.90 1013 10 16 0.00 0.00
4:56 pm 16:56 Sunny 68 20 30 -1.1 24 24 NNW 5 7 29.94 1014 10 16 0.00 0.00
5:56 pm 17:56 Clear 60 15.6 28 -2.2 30 30 NW 5 7 29.99 1016 10 16 0.00 0.00
6:56 pm 18:56 Clear 55 12.8 29 -1.7 37 37 WNW 6 9 30.03 1017 10 16 0.00 0.00
7:56 pm 19:56 Clear 54 12.2 29 -1.7 38 38 W 6 9 30.06 1018 10 16 0.00 0.00
8:56 pm 20:56 Clear 51 10.6 28 -2.2 41 41 WNW 9 15 30.07 1018 10 16 0.00 0.00
9:56 pm 21:56 Clear 47 8.3 26 -3.3 44 44 WNW 9 15 30.10 1019 10 16 0.00 0.00
10:56 pm 22:56 Clear 48 8.9 30 -1.1 50 50 NNW 13 20 30.15 1021 10 16 0.00 0.00
11:56 pm 23:56 Clear 45 7.2 32 0 61 61 NNW 8 13 30.18 1022 10 16 0.00 0.00

Powered by AerisWeather